2018-004AB (43136 NORAD) Tracking and Keplerian Element Data

This shows tracking and keplerian element data for the satellite.

Feedback or suggestion? Click here.




ElementValue
Catalog43136
Name2018-004AB
Epoch Orbit12355
Epoch Day93.7870762
Epoch Year2020
RAAN166.0205
Inclination97.4544
Eccentricity0.0008033
Argument of Perigee328.755
Mean Anonmoly31.3209
Mean Motion15.24775064
Decay Rate1.714E-05
L11 43136U 18004AB 20093.78707620 .00001714 00000-0 72071-4 0 9995
L22 43136 97.4544 166.0205 0008033 328.7550 31.3209 15.24775064123551

Live tracking and technical data element details for 2018-004AB (NORAD 43136). 2018-004AB can be tracked NOW for your location showing map with azimuth and elevation plus other details from your city location.

Track the satellite on the map from your city or location and see movement details for azimuth, elevation, latitude, longitude, range, height, and movement on the map or in text.







IsCatalogInMostPopularTable: catalog: 43136, numindb: 438
Update: records affected: 1



GetName: 43136 2018-004AB

Hit Count: updated at: Thu, 09 Apr 2020 16:38:55 GMT